sat.trackr.live / text

‹ back to catalog

STARLINK-36975

NORAD 67993 · 2026-039H

PAYLOAD ACTIVE UNKNOWN

§ Identity

Operator
Country
US
Launch date
2026-02-27
Launch site
AFETR
Launch vehicle
Mass (kg)
RCS (m²)

Purposes: comms

External: N2YO · Heavens-Above · Gunter

§ Orbital elements

Epoch: 2026-09-20T02:07:19.801632Z

Period
94.27 min
Inclination
43.0050°
Eccentricity
0.0002198
Mean motion
15.27591508 rev/d
Perigee alt
481.5 km
Apogee alt
484.5 km
Semi-major
6,861.2 km
B*
5.0696e-4
RAAN
31.1291°
Arg perigee
274.3365°
Mean anomaly
85.7235°
Rev number
3,143

§ Raw data

STARLINK-369751 67993U 26039H   26263.08842363  .00013719  00000+0  50696-3 0  99962 67993  43.0050  31.1291 0002198 274.3365  85.7235 15.27591508 31439

JSON: /api/v1/satellites/67993 · /tle

For live sub-satellite position, see the globe view (requires WebGL).

§ Visibility from observer

Set your observer location to see the next 7 days of passes ≥ 10°. The values pass through the URL so the page stays shareable.

No JS? Fill the form by hand. The geolocation button needs JavaScript.